Theta_e
303 303 303 302 301 301 297 298 294 297 296 299 300 300 301 301 301 301 300 300 298 298 297 299 301 301 303 304 307 306 306 306 304 305 304 305 307 305 304 303 304 307 306 305
302 306 304 301 302 301 302 300 298 298 296 303 304 304 302 301 301 299 300 300 299 300 301 300 301 302 303 304 307 305 304 307 307 305 305 305 307 308 307 306 306 304 303 304
296 304 303 295 300 300 301 300 299 293 295 302 302 302 300 299 300 300 300 300 300 300 301 301 301 305 305 306 307 306 305 308 308 308 305 305 306 306 304 304 305 305 306 306
297 302 289 301 305 306 303 304 303 302 302 303 300 300 300 300 299 300 301 300 303 301 301 301 302 303 306 308 308 305 305 306 307 306 305 306 306 306 304 303 303 306 304 303
294 295 299 303 305 302 301 299 304 303 303 304 303 301 299 302 302 301 301 302 302 302 301 303 303 306 307 306 305 304 305 305 307 307 306 305 304 305 306 304 304 304 305 303
297 293 290 301 306 309 307 295 304 304 302 302 301 292 294 301 303 303 303 302 305 302 302 303 303 306 306 304 304 303 305 309 310 307 306 306 309 309 310 309 308 307 306 304
297 295 300 307 308 309 292 294 306 303 302 301 297 297 300 304 302 305 304 303 305 301 302 303 304 306 304 307 306 307 308 310 310 309 306 308 310 309 310 307 308 306 309 305
298 294 292 310 307 299 302 305 305 303 302 301 302 302 302 302 304 305 304 303 306 302 302 304 305 305 307 303 307 307 310 311 309 311 310 310 304 305 307 307 305 308 306 306
299 298 308 308 307 308 307 304 303 302 303 305 302 302 302 301 302 303 303 303 304 302 304 305 306 306 306 306 308 309 310 308 308 309 309 308 299 297 298 299 300 301 299 300
301 307 307 309 309 309 307 304 304 305 305 305 302 302 302 303 303 302 303 305 305 305 306 304 306 308 306 308 309 311 307 307 307 307 306 303 303 297 294 293 294 294 297 292
302 308 309 308 308 308 308 307 305 305 306 305 303 302 306 304 303 304 303 306 304 306 306 305 308 307 308 309 311 309 308 307 307 305 305 301 296 296 294 289 289 289 288 291
300 307 305 305 307 311 307 304 305 305 305 306 304 303 306 303 304 306 305 304 305 305 305 308 307 308 309 310 310 310 307 306 305 307 308 307 298 294 293 293 294 293 292 289
307 310 310 310 313 311 307 305 306 306 307 305 306 305 307 306 304 305 305 305 305 305 307 307 307 307 309 309 309 309 307 307 307 306 307 307 302 298 294 294 295 294 293 292
315 314 309 312 308 310 308 306 308 307 309 307 306 306 308 305 304 304 303 305 306 307 308 307 307 307 309 310 308 307 307 305 306 306 305 307 306 305 301 296 292 294 295 292
312 312 314 313 314 311 310 309 308 306 307 306 306 307 307 307 305 305 307 307 307 308 306 307 308 307 309 311 310 309 309 307 306 306 306 306 305 301 301 300 299 297 294 294
311 311 310 309 310 311 311 308 306 308 308 307 306 307 307 308 308 307 307 308 305 304 307 306 307 311 313 311 309 308 309 305 302 305 307 304 301 301 300 300 297 294 294 294
308 306 308 308 309 309 310 314 312 308 308 307 307 308 308 307 307 307 307 309 308 308 309 306 307 312 313 312 310 309 308 309 304 308 305 300 299 301 300 299 298 296 295 295
311 311 310 310 310 310 311 314 315 313 308 309 311 309 308 307 305 305 307 308 309 309 309 309 310 311 311 312 309 310 309 307 308 306 302 301 300 300 297 297 297 298 296 295
312 310 312 313 312 311 311 313 314 314 312 311 310 308 308 308 308 310 309 309 308 307 307 311 308 307 310 309 308 308 305 305 307 306 301 299 300 301 298 296 296 296 296 297
309 310 311 313 314 313 311 314 314 312 312 309 311 309 307 308 309 309 309 307 308 308 310 311 308 308 310 310 304 307 308 306 308 309 305 303 299 299 299 295 296 296 296 297
308 309 309 311 312 313 312 313 314 311 312 311 309 309 310 310 311 309 307 307 310 311 311 308 310 313 313 307 307 307 307 305 306 306 308 309 306 300 300 299 298 296 296 296
307 307 308 310 310 310 311 312 312 312 311 311 313 311 309 309 311 310 310 307 311 305 310 309 311 304 308 303 310 307 306 308 309 309 306 307 309 308 304 300 298 298 297 295
308 309 308 308 308 308 311 310 310 310 311 310 311 311 309 310 310 308 307 310 310 304 311 311 303 294 291 303 306 307 308 308 306 309 306 307 308 308 308 304 300 298 296 295
309 310 308 308 308 307 306 306 308 310 309 310 311 312 310 309 310 311 312 305 302 301 309 309 300 290 288 308 307 307 307 308 307 306 309 299 307 306 306 307 303 301 298 295
306 310 310 307 305 305 305 306 307 306 307 306 309 312 313 313 311 312 313 310 300 301 309 296 291 290 300 307 308 310 308 308 308 307 306 308 309 306 307 308 308 304 301 299
307 307 307 308 307 306 305 305 303 305 305 305 306 309 311 312 313 311 312 307 308 301 308 311 303 300 306 309 309 310 310 310 307 307 306 307 309 309 308 308 308 304 304 302
305 300 303 305 306 307 307 304 303 303 303 305 305 309 310 309 309 308 305 309 309 307 307 308 310 302 306 308 309 309 310 309 303 308 308 309 309 309 309 309 309 309 307 304
Wind_Speed
5 6 6 9 13 14 10 9 7 5 8 7 8 8 7 7 12 13 9 7 7 5 6 5 6 5 6 6 5 5 4 5 7 6 6 5 4 5 6 6 6 6 7 6
3 7 20 18 15 13 13 12 11 8 5 8 8 8 7 10 11 11 6 8 7 6 7 4 4 5 5 5 5 6 6 5 5 6 5 6 5 5 5 4 5 5 6 6
5 3 5 9 11 12 13 11 8 7 4 6 10 10 9 10 11 8 8 7 6 6 5 4 5 5 5 6 4 5 6 5 6 5 4 5 5 6 5 5 4 5 4 4
5 1 6 4 11 14 17 14 12 9 9 13 13 10 9 9 9 8 6 6 7 5 4 3 3 5 5 5 5 6 6 6 6 5 6 6 6 5 3 1 2 4 5 4
4 4 7 13 9 3 4 6 7 8 9 9 14 12 9 8 7 7 6 5 4 4 2 3 4 3 5 6 5 6 6 6 6 6 6 5 5 6 4 3 3 3 3 4
2 5 4 4 13 15 7 4 7 9 8 7 8 5 1 6 8 6 6 5 5 3 1 5 4 5 5 5 4 5 5 6 5 5 6 6 6 6 4 3 3 4 3 3
5 5 4 7 13 6 9 4 7 9 7 9 5 5 6 7 6 6 5 5 3 2 3 1 2 4 5 3 5 5 4 5 6 5 4 5 5 3 4 6 5 4 4 4
6 6 3 8 7 7 2 6 8 8 8 8 8 7 7 7 5 6 5 4 3 3 1 2 2 4 4 3 5 4 4 4 4 5 4 4 5 4 5 5 5 4 4 3
5 3 5 4 8 6 8 7 6 6 6 10 7 7 6 5 7 5 4 2 2 1 1 1 3 1 4 4 5 5 6 6 5 6 5 3 5 6 4 6 5 5 4 2
6 6 7 7 6 8 7 6 7 7 8 8 7 7 6 6 4 3 1 1 1 3 3 2 2 4 2 3 4 5 6 7 6 5 4 5 4 4 4 4 4 4 4 4
4 6 7 6 6 6 6 8 8 8 7 8 8 5 5 4 4 4 3 3 1 3 1 3 3 1 2 3 3 3 4 6 6 4 3 2 2 1 2 1 0 1 1 0
1 3 5 2 4 6 8 8 7 7 8 6 7 5 6 5 3 2 4 3 3 0 4 3 2 1 2 2 4 4 4 5 5 5 4 5 4 2 1 3 5 5 6 3
1 3 4 5 7 8 9 8 5 7 8 7 6 3 5 5 3 1 3 1 1 1 1 2 3 0 4 2 4 4 5 6 5 6 7 1 5 5 4 4 7 9 9 9
10 6 1 5 3 8 10 7 4 5 9 8 7 4 6 6 4 3 1 1 3 4 5 3 2 2 6 5 4 4 5 10 5 5 5 6 1 5 5 5 4 3 7 8
9 13 6 5 5 6 8 7 8 8 7 8 7 6 5 7 6 5 5 6 3 3 3 4 6 6 5 5 5 6 6 5 5 5 5 6 5 0 4 5 5 4 2 2
8 9 9 9 10 3 7 9 8 7 9 8 8 7 6 5 5 6 6 6 4 4 5 5 4 3 2 4 7 4 6 10 8 5 5 4 2 3 2 2 5 4 1 1
7 8 8 9 10 10 9 6 6 8 9 9 10 8 7 6 5 5 6 7 6 5 5 5 6 4 2 6 5 5 5 6 10 7 3 1 1 3 3 2 4 4 4 3
10 10 10 10 12 12 14 14 15 6 9 9 13 9 7 7 7 7 6 5 5 6 7 6 5 4 3 5 5 4 5 6 8 7 4 3 1 0 1 3 2 5 3 2
12 13 14 14 13 12 12 10 14 11 7 9 11 10 8 7 7 7 7 6 7 6 7 7 8 6 6 8 5 5 5 6 7 5 2 3 2 2 3 2 2 2 3 3
13 12 12 12 12 12 11 12 14 11 4 7 10 9 8 7 7 6 6 7 6 6 7 7 7 6 7 7 6 4 6 6 6 7 3 0 3 2 2 3 3 4 2 1
9 11 11 13 12 11 9 10 11 8 9 3 5 6 9 8 7 7 5 4 6 6 7 8 6 5 4 5 3 4 5 5 5 5 4 4 2 4 4 4 5 4 3 2
2 5 8 9 10 11 12 11 7 9 6 7 10 6 6 5 9 7 7 6 5 8 5 5 5 9 6 9 4 4 5 5 1 6 5 4 3 4 4 4 5 4 4 3
1 0 3 6 7 9 10 12 9 7 8 6 6 8 5 1 1 2 5 7 5 7 5 5 5 5 8 5 5 5 5 5 4 3 5 4 5 3 2 2 4 5 5 4
5 6 4 3 5 6 9 10 12 11 7 8 8 5 3 3 4 2 6 7 9 8 7 7 6 7 7 5 5 5 5 5 5 4 4 8 6 4 4 3 5 4 5 6
6 5 2 4 3 4 5 7 8 7 9 10 12 10 7 4 5 3 8 8 11 8 6 8 9 8 6 6 5 5 5 4 5 4 4 5 5 5 5 3 5 6 6 5
5 2 4 4 4 2 2 3 5 6 6 8 8 10 10 6 7 9 10 9 6 7 6 7 6 6 7 8 7 7 6 5 5 6 7 5 5 5 5 4 2 4 5 5
4 4 4 1 1 0 1 2 3 4 4 7 8 7 8 10 10 10 7 4 5 6 6 7 7 8 7 9 9 9 8 6 5 3 5 6 6 5 5 4 4 5 6 6
Wind_Direction
59 37 60 92 56 51 53 60 89 112 80 84 105 104 91 85 101 97 84 73 99 75 73 27 29 19 2 360 22 11 22 5 350 337 345 360 19 26 26 24 12 14 19 38
63 15 68 30 43 45 59 57 72 77 83 118 120 100 85 79 85 87 72 70 79 57 82 28 19 16 2 16 12 20 359 347 328 334 348 342 1 27 42 26 14 21 26 35
313 305 108 50 27 42 71 59 76 59 346 45 78 75 69 71 77 89 76 77 101 76 79 22 36 27 2 358 339 12 350 341 356 360 357 344 348 19 39 31 14 354 27 49
228 34 42 44 41 77 72 43 42 35 33 97 99 85 73 72 80 74 72 69 72 58 62 31 44 12 356 356 353 17 348 4 349 4 17 21 24 21 27 12 326 332 351 48
86 69 9 10 5 27 103 34 21 36 36 90 112 96 67 85 86 105 81 92 91 88 49 67 51 14 355 358 19 2 349 355 356 357 9 14 5 345 340 8 4 19 60 86
309 126 119 322 351 321 115 51 13 62 43 56 33 69 165 87 100 98 81 88 105 134 47 60 13 350 4 356 14 348 343 325 346 343 1 357 335 343 319 345 347 19 59 111
320 87 78 333 3 2 62 287 42 66 58 76 82 139 146 106 85 106 106 112 129 131 96 267 9 359 2 11 7 328 346 351 357 342 316 318 320 313 349 7 25 32 60 64
31 66 21 344 26 71 205 48 67 57 67 115 119 114 105 126 115 108 71 102 81 33 49 62 23 10 358 8 321 350 0 8 327 317 321 340 10 4 15 22 42 31 67 47
84 159 160 99 107 77 81 80 70 79 46 113 110 106 116 109 105 89 102 96 148 348 55 336 42 344 42 346 25 349 338 339 331 319 336 330 52 24 14 18 34 23 53 43
73 14 73 94 91 95 91 100 80 67 92 102 100 106 103 98 116 124 155 159 75 308 18 76 35 61 69 352 321 8 356 323 303 320 348 21 34 52 36 21 32 35 40 26
71 43 87 67 86 116 117 88 99 85 90 103 102 99 134 134 126 143 223 132 158 104 353 95 103 36 26 348 17 345 328 320 300 295 293 136 76 69 89 93 104 18 340 215
127 80 113 71 111 93 92 87 74 117 104 107 122 128 118 112 107 129 100 64 51 43 306 120 143 111 288 267 302 297 333 310 302 306 284 192 175 175 340 165 298 294 293 292
112 130 165 179 87 76 95 83 67 106 134 127 119 129 132 144 111 156 164 136 187 194 226 155 148 289 302 292 303 323 318 319 312 302 302 171 188 177 188 287 272 284 286 295
3 289 30 44 138 129 119 119 132 130 139 148 139 150 151 139 149 173 27 216 240 231 182 226 233 221 276 305 297 292 287 281 270 280 287 306 112 201 177 185 203 263 274 239
8 27 72 334 357 131 143 161 186 192 169 149 157 166 163 176 187 193 191 252 258 280 167 222 228 246 245 268 283 296 307 299 296 296 301 295 309 7 169 175 189 212 273 339
9 6 9 8 354 340 184 198 195 213 171 156 162 176 184 176 164 174 206 222 196 238 234 232 264 225 339 335 294 309 303 281 279 290 303 305 24 37 2 98 150 158 135 267
8 354 3 1 351 336 337 302 240 212 168 155 165 173 168 166 183 208 220 205 213 225 235 215 242 235 337 296 274 289 296 305 298 304 246 241 360 2 315 26 144 169 199 229
18 19 13 5 354 344 342 347 343 261 169 165 157 158 170 175 199 218 219 212 217 227 221 229 236 254 281 292 301 311 299 284 296 289 200 165 246 40 319 66 77 179 210 245
27 10 2 357 347 337 335 334 327 298 167 144 155 170 181 193 200 206 201 225 218 230 241 211 213 218 256 274 308 299 290 292 301 313 194 189 204 274 201 144 43 146 136 184
22 11 356 342 338 338 346 347 340 338 187 161 160 167 182 196 201 214 212 217 217 212 223 215 196 215 242 260 281 293 289 288 317 340 284 334 207 233 186 194 131 147 112 103
20 3 358 356 347 345 348 340 344 335 327 287 205 204 180 192 195 209 212 220 243 235 218 209 198 219 234 240 277 275 287 290 300 330 300 290 269 261 186 178 154 154 145 128
45 18 349 359 351 344 342 330 336 337 357 348 289 213 194 223 196 207 207 198 221 208 189 203 211 222 226 231 247 264 283 291 327 294 286 316 327 352 274 174 164 160 144 143
360 350 1 7 352 338 346 354 340 341 329 328 335 337 333 17 145 225 238 233 204 197 202 213 199 239 228 210 225 247 272 292 291 319 299 312 299 284 319 235 190 156 158 157
337 315 79 23 16 1 355 348 346 356 327 296 295 284 290 340 338 328 280 251 215 203 209 209 200 208 218 225 221 231 243 257 252 270 299 333 288 274 298 284 229 178 168 178
330 336 347 78 37 347 341 337 328 339 349 358 348 303 246 211 211 246 264 255 216 201 210 210 213 209 214 219 223 239 240 252 277 261 254 277 295 289 285 301 257 178 181 181
331 324 318 142 165 229 268 322 332 331 337 338 335 345 318 261 242 229 244 231 198 202 213 222 194 204 226 223 220 226 233 239 239 249 254 234 233 262 268 299 228 190 196 168
295 296 313 298 81 146 358 263 309 333 333 329 322 333 350 327 325 260 199 229 208 213 219 234 233 200 212 225 229 231 230 229 225 259 269 261 249 244 259 249 261 219 184 171